Location: Newark
(47.0000°N, 7.6833°E)
Time: 22:16:10
(UTC+00:00)

AAUSAT CUBESAT 2 - Visible Passes

Search period start: 21 October 2019 00:00
Search period end: 31 October 2019 00:00
Orbit: 574 x 592 km, 97.5° (Epoch: 20 October)

Date Brightness Start Highest point End Pass type
(mag) Time Alt. Az. Time Alt. Az. Time Alt. Az.
21 Oct ? 18:28:56 10° SW 18:31:26 15° W 18:33:56 10° NW visible
22 Oct ? 16:57:26 10° SSE 17:01:31 62° ENE 17:05:36 10° N visible
22 Oct ? 18:35:15 10° WSW 18:37:19 13° W 18:39:23 10° WNW visible
23 Oct ? 17:03:13 10° SSE 17:07:19 72° ENE 17:11:27 10° N visible
23 Oct ? 18:41:45 10° WSW 18:43:13 12° W 18:44:41 10° WNW visible
24 Oct ? 17:09:01 10° SSE 17:13:08 83° ENE 17:17:17 10° N visible
25 Oct ? 04:50:24 10° E 04:50:58 10° E 04:51:32 10° E visible
25 Oct ? 17:14:50 10° SSE 17:18:58 86° W 17:23:06 10° NNW visible
26 Oct ? 04:55:16 10° ENE 04:56:52 12° E 04:58:27 10° ESE visible
26 Oct ? 17:20:40 10° S 17:24:47 74° WSW 17:28:55 10° NNW visible
27 Oct ? 05:00:36 10° ENE 05:02:45 14° E 05:04:54 10° ESE visible
27 Oct ? 17:26:32 10° S 17:30:37 63° W 17:34:42 10° NNW visible
28 Oct ? 05:06:05 10° NE 05:08:38 16° E 05:11:11 10° SE visible
28 Oct ? 17:32:24 10° S 17:36:26 54° W 17:40:30 10° NNW visible
29 Oct ? 05:11:38 10° NE 05:14:31 18° E 05:17:23 10° SE visible
29 Oct ? 17:38:19 10° S 17:42:17 47° W 17:46:16 10° NNW visible
30 Oct ? 05:17:15 10° NE 05:20:23 21° E 05:23:30 10° SE visible
30 Oct ? 17:44:14 10° SSW 17:48:07 40° W 17:52:01 10° NNW visible
